Tracking 30744 objects as of 24-Jun-2025
HD Live streaming from Space Station
objects crossing your sky now

DELTA 1 DEB

Track DELTA 1 DEB now!
10-day predictions


NORAD ID: 21386
Int'l Code: 1975-052DG
Perigee: 1,023.1 km
Apogee: 1,293.7 km
Inclination: 99.6 °
Period: 108.4 minutes
Semi major axis: 7529 km
RCS: 0.014 m2 (small)
Launch date: June 12, 1975
Source: United States (US)
Launch site: AIR FORCE WESTERN TEST RANGE (AFWTR)

Note: This is SATELLITE DEBRIS
Your satellite tracking list
Your tracking list is empty




NASA's NSSDC Master Catalog

Two Line Element Set (TLE):
1 21386U 75052DG  25174.93509442  .00000237  00000-0  55359-3 0  9996
2 21386  99.5839 242.0310 0179731 358.5676 185.8232 13.28811535645242
Source of the keplerian elements: AFSPC